Regional Weather Roundup
Issued by NWS Glasgow, MT

Home | Current Version | Previous Version | Text Only | Print | Product List | Glossary On
Versions: 1 2 3 4 5 6 7 8 9 10 11 12 13 14 15 16 17 18 19 20 21 22 23 24 25 26 27 28 29 30 31 32 33 34 35 36 37 38 39 40 41 42 43 44 45 46 47 48 49 50
000
ASUS45 KGGW 210715
RWRGGW
HOURLY REGIONAL WEATHER ROUNDUP FOR NORTHEAST MONTANA
NATIONAL WEATHER SERVICE GLASGOW MONTANA
1200 AM MST SUN JAN 21 2018

NOTE: "FAIR" INDICATES FEW OR NO CLOUDS BELOW 12,000 FEET WITH NO
SIGNIFICANT WEATHER AND/OR OBSTRUCTIONS TO VISISBILITY.

NORTHEAST MONTANA


CITY           SKY/WX    TMP DP  RH WIND       PRES   REMARKS
GLASGOW        CLEAR     19  15  84 S5        29.95R
PLENTYWOOD       N/A     19  19 100 NE1         N/A
WOLF POINT     CLEAR      7   3  84 NW3       29.98R
JORDAN           N/A     15  10  80 W9        29.96S
WINNETT          N/A     18  15  88 S3          N/A
SIDNEY         CLEAR     20  17  88 CALM      29.98S
GLENDIVE       CLEAR     19  15  84 S5        29.98S
MALTA            N/A     21  18  88 SW3         N/A
SCOBEY           N/A     10   2  69 CALM      29.92R

FORT PECK REPORTS


CITY           SKY/WX    TMP DP  RH WIND       PRES   REMARKS
FORT PECK        N/A     21  18  88 SE6         N/A
THE PINES        N/A     29  21  72 SW6         N/A

SOUTHEAST MONTANA


CITY           SKY/WX    TMP DP  RH WIND       PRES   REMARKS
BILLINGS       PTCLDY    25  16  68 SW10      29.99R
MILES CITY     PTCLDY    11  10  96 W6        30.00R
BAKER          PTCLDY    16  13  88 SW3       29.98S
LIVINGSTON     CLOUDY    27  19  72 W13       29.99S

CENTRAL MONTANA


CITY           SKY/WX    TMP DP  RH WIND       PRES   REMARKS
HAVRE          CLEAR     21  17  84 SW15      29.95R
LEWISTOWN      PTCLDY    21  14  74 E5        29.96R
GREAT FALLS    CLEAR     26  18  71 SW12      29.96R
CUT BANK       CLEAR     28  18  66 W17       29.90R
HELENA         CLEAR     24  17  74 SW5       30.02R
BUTTE          CLOUDY    19  15  84 CALM      30.01R
BOZEMAN        CLOUDY    24  20  84 SE3       30.03S

WESTERN MONTANA


CITY           SKY/WX    TMP DP  RH WIND       PRES   REMARKS
MISSOULA       PTCLDY    28  23  81 CALM      30.09R
KALISPELL      NOT AVBL

NORTH DAKOTA


CITY           SKY/WX    TMP DP  RH WIND       PRES   REMARKS
WILLISTON      CLEAR     17  13  84 CALM      29.97R
DICKINSON      PTCLDY    22  17  81 W12       29.94S
MINOT          CLEAR     23  17  78 W7        29.95S
BISMARCK       MOCLDY    24  20  84 SW5       29.99R

SOUTHERN SASKATCHEWAN


CITY           SKY/WX    TMP DP  RH WIND       PRES   REMARKS
REGINA         CLEAR     16  12  86 E5        29.93R
ESTEVAN        CLEAR      9   7  92 SW6       29.94S
SWIFT CURRENT  CLEAR     19  14  79 W8        29.85S




USA.gov is the U.S. government's official web portal to all federal, state and local government web resources and services.